| time (UTC) | temp F | wind direction | speed MPH | gust MPH | rain 1hr in | rain 24hr in | rain mn in | humidity % | barometer mb |
| 20260503222050 | 51 | 334 | 1.0 | 10.0 | 0.00 | 0.02 | 0.00 | 43 | 1006.7 |
| 20260503221553 | 51 | 27 | 3.0 | 10.0 | 0.00 | 0.02 | 0.00 | 41 | 1006.6 |
| 20260503221052 | 52 | 296 | 4.0 | 10.0 | 0.00 | 0.02 | 0.00 | 42 | 1006.6 |
| 20260503220551 | 52 | 252 | 4.0 | 10.0 | 0.00 | 0.02 | 0.00 | 44 | 1006.5 |
| 20260503220049 | 51 | 336 | 4.0 | 7.0 | 0.00 | 0.02 | 0.00 | 43 | 1006.5 |
| 20260503215549 | 51 | 350 | 4.0 | 7.0 | 0.00 | 0.02 | 0.00 | 42 | 1006.5 |
| 20260503215049 | 52 | 348 | 2.0 | 10.0 | 0.00 | 0.02 | 0.00 | 43 | 1006.4 |
| 20260503214548 | 52 | 329 | 5.0 | 10.0 | 0.00 | 0.02 | 0.00 | 41 | 1006.4 |
| 20260503214049 | 51 | 223 | 4.0 | 7.0 | 0.00 | 0.02 | 0.00 | 42 | 1006.3 |
| 20260503213548 | 51 | 306 | 1.0 | 7.0 | 0.00 | 0.02 | 0.00 | 43 | 1006.3 |
| 20260503213100 | 51 | 33 | 3.0 | 10.0 | 0.00 | 0.02 | 0.00 | 42 | 1006.3 |
| 20260503212548 | 52 | 324 | 4.0 | 10.0 | 0.00 | 0.02 | 0.00 | 42 | 1006.2 |
| 20260503212048 | 52 | 351 | 2.0 | 6.0 | 0.00 | 0.02 | 0.00 | 43 | 1006.2 |
| 20260503211547 | 52 | 340 | 2.0 | 9.0 | 0.00 | 0.02 | 0.00 | 44 | 1006.1 |
| 20260503211047 | 52 | 86 | 2.0 | 12.0 | 0.00 | 0.02 | 0.00 | 43 | 1006.0 |
| 20260503210550 | 52 | 312 | 2.0 | 12.0 | 0.00 | 0.02 | 0.00 | 43 | 1005.9 |
| 20260503210055 | 52 | 312 | 3.0 | 9.0 | 0.00 | 0.07 | 0.00 | 42 | 1005.8 |
| 20260503205548 | 52 | 246 | 2.0 | 9.0 | 0.00 | 0.07 | 0.00 | 46 | 1005.9 |
| 20260503205046 | 52 | 337 | 3.0 | 9.0 | 0.00 | 0.07 | 0.00 | 43 | 1005.9 |
| 20260503204552 | 52 | 321 | 4.0 | 11.0 | 0.00 | 0.07 | 0.00 | 42 | 1005.8 |
| 20260503204046 | 52 | 33 | 4.0 | 11.0 | 0.00 | 0.07 | 0.00 | 43 | 1005.8 |
| 20260503203546 | 52 | 333 | 2.0 | 8.0 | 0.00 | 0.07 | 0.00 | 45 | 1005.7 |
| 20260503203045 | 51 | 286 | 4.0 | 11.0 | 0.00 | 0.07 | 0.00 | 42 | 1005.8 |
| 20260503202545 | 52 | 292 | 5.0 | 11.0 | 0.00 | 0.07 | 0.00 | 43 | 1005.7 |
| 20260503202045 | 52 | 30 | 3.0 | 10.0 | 0.00 | 0.07 | 0.00 | 42 | 1005.6 |
| 20260503201545 | 52 | 329 | 4.0 | 10.0 | 0.00 | 0.07 | 0.00 | 42 | 1005.5 |
| 20260503201043 | 52 | 292 | 4.0 | 11.0 | 0.00 | 0.07 | 0.00 | 42 | 1005.4 |
| 20260503200543 | 52 | 346 | 3.0 | 11.0 | 0.00 | 0.07 | 0.00 | 41 | 1005.5 |
| 20260503200049 | 53 | 331 | 4.0 | 8.0 | 0.00 | 0.18 | 0.00 | 40 | 1005.5 |
| 20260503195544 | 53 | 221 | 3.0 | 11.0 | 0.00 | 0.18 | 0.00 | 42 | 1005.5 |
| 20260503195043 | 54 | 23 | 3.0 | 11.0 | 0.00 | 0.18 | 0.00 | 46 | 1005.5 |
| 20260503194546 | 53 | 355 | 4.0 | 11.0 | 0.00 | 0.18 | 0.00 | 40 | 1005.5 |
| 20260503194042 | 52 | 244 | 4.0 | 9.0 | 0.00 | 0.18 | 0.00 | 44 | 1005.6 |
| 20260503193542 | 52 | 202 | 2.0 | 8.0 | 0.00 | 0.18 | 0.00 | 44 | 1005.4 |
| 20260503193050 | 52 | 313 | 3.0 | 10.0 | 0.00 | 0.18 | 0.00 | 44 | 1005.6 |
| 20260503192541 | 52 | 343 | 4.0 | 10.0 | 0.00 | 0.18 | 0.00 | 44 | 1005.6 |
| 20260503192041 | 52 | 309 | 2.0 | 9.0 | 0.00 | 0.18 | 0.00 | 46 | 1005.5 |
| 20260503191542 | 52 | 351 | 3.0 | 8.0 | 0.00 | 0.18 | 0.00 | 48 | 1005.4 |
| 20260503191041 | 52 | 350 | 4.0 | 8.0 | 0.00 | 0.18 | 0.00 | 46 | 1005.4 |
| 20260503190544 | 52 | 329 | 2.0 | 11.0 | 0.00 | 0.18 | 0.00 | 48 | 1005.4 |
| 20260503190040 | 53 | 19 | 3.0 | 11.0 | 0.00 | 0.22 | 0.00 | 47 | 1005.5 |
| 20260503185542 | 53 | 45 | 4.0 | 9.0 | 0.00 | 0.22 | 0.00 | 49 | 1005.5 |
| 20260503185038 | 52 | 267 | 1.0 | 10.0 | 0.00 | 0.22 | 0.00 | 44 | 1005.6 |
| 20260503184551 | 53 | 283 | 4.0 | 10.0 | 0.00 | 0.22 | 0.00 | 45 | 1005.6 |
| 20260503184040 | 54 | 318 | 3.0 | 12.0 | 0.00 | 0.22 | 0.00 | 45 | 1005.6 |
| 20260503183536 | 53 | 5 | 4.0 | 12.0 | 0.00 | 0.22 | 0.00 | 50 | 1005.5 |
| 20260503183052 | 53 | 5 | 4.0 | 14.0 | 0.00 | 0.22 | 0.00 | 49 | 1005.6 |
| 20260503182536 | 53 | 59 | 5.0 | 10.0 | 0.00 | 0.22 | 0.00 | 48 | 1005.5 |
| 20260503182034 | 53 | 94 | 5.0 | 8.0 | 0.00 | 0.22 | 0.00 | 48 | 1005.4 |
| 20260503181535 | 53 | 219 | 2.0 | 8.0 | 0.00 | 0.22 | 0.00 | 48 | 1005.5 |
| 20260503181034 | 53 | 244 | 2.0 | 8.0 | 0.00 | 0.22 | 0.00 | 51 | 1005.5 |
| 20260503180533 | 52 | 206 | 4.0 | 10.0 | 0.00 | 0.22 | 0.00 | 51 | 1005.5 |
| 20260503180040 | 52 | 324 | 5.0 | 10.0 | 0.00 | 0.22 | 0.00 | 49 | 1005.7 |
| 20260503175530 | 52 | 313 | 2.0 | 7.0 | 0.00 | 0.22 | 0.00 | 51 | 1005.7 |
| 20260503175030 | 51 | 333 | 3.0 | 15.0 | 0.00 | 0.22 | 0.00 | 54 | 1005.7 |
| 20260503174528 | 51 | 333 | 4.0 | 15.0 | 0.00 | 0.22 | 0.00 | 51 | 1005.8 |
| 20260503174028 | 51 | 38 | 3.0 | 10.0 | 0.00 | 0.22 | 0.00 | 51 | 1005.7 |
| 20260503173527 | 51 | 323 | 3.0 | 11.0 | 0.00 | 0.22 | 0.00 | 51 | 1005.7 |
| 20260503173037 | 51 | 20 | 3.0 | 11.0 | 0.00 | 0.22 | 0.00 | 53 | 1005.8 |
| 20260503172526 | 51 | 65 | 4.0 | 12.0 | 0.00 | 0.22 | 0.00 | 54 | 1005.8 |
| 20260503172024 | 50 | 275 | 3.0 | 12.0 | 0.00 | 0.22 | 0.00 | 56 | 1005.7 |
| 20260503171524 | 50 | 217 | 3.0 | 8.0 | 0.00 | 0.22 | 0.00 | 55 | 1005.7 |
| 20260503171025 | 50 | 29 | 3.0 | 8.0 | 0.00 | 0.22 | 0.00 | 56 | 1005.7 |
| 20260503170524 | 50 | 291 | 2.0 | 10.0 | 0.00 | 0.22 | 0.00 | 55 | 1005.7 |
| 20260503151011 | 47 | 337 | 5.0 | 10.0 | 0.00 | 0.22 | 0.00 | 70 | 1006.0 |
| 20260503150507 | 47 | 299 | 2.0 | 10.0 | 0.00 | 0.22 | 0.00 | 72 | 1006.0 |
| 20260503131051 | 43 | 292 | 6.0 | 10.0 | 0.00 | 0.22 | 0.00 | 87 | 1006.4 |
| 20260503130548 | 43 | 76 | 1.0 | 7.0 | 0.00 | 0.22 | 0.00 | 88 | 1006.5 |
| 20260503110537 | 41 | 336 | 0.0 | 6.0 | 0.00 | 0.33 | 0.00 | 88 | 1006.7 |
| 20260503081516 | 41 | 328 | 0.0 | 4.0 | 0.00 | 0.35 | 0.00 | 93 | 1007.7 |
| 20260503081015 | 41 | 325 | 1.0 | 4.0 | 0.00 | 0.35 | 0.00 | 94 | 1007.6 |
| 20260503080514 | 41 | 329 | 0.0 | 4.0 | 0.00 | 0.35 | 0.00 | 94 | 1007.6 |
| 20260503072508 | 41 | 38 | 1.0 | 4.0 | 0.00 | 0.35 | 0.00 | 95 | 1008.0 |
| 20260503072007 | 41 | 92 | 0.0 | 1.0 | 0.00 | 0.35 | 0.00 | 95 | 1008.1 |
| 20260503071510 | 41 | 92 | 0.0 | 1.0 | 0.00 | 0.35 | 0.00 | 95 | 1008.1 |
| 20260503071006 | 42 | 85 | 0.0 | 0.0 | 0.00 | 0.35 | 0.00 | 95 | 1008.1 |
| 20260503070507 | 42 | 85 | 0.0 | 0.0 | 0.00 | 0.35 | 0.00 | 95 | 1008.1 |
| 20260503055054 | 42 | 292 | 1.0 | 2.0 | 0.00 | 0.35 | 0.00 | 95 | 1008.9 |
| 20260503054554 | 43 | 13 | 0.0 | 1.0 | 0.00 | 0.35 | 0.00 | 95 | 1008.9 |
| 20260503054054 | 42 | 13 | 0.0 | 1.0 | 0.00 | 0.35 | 0.00 | 95 | 1008.9 |
| 20260503053553 | 42 | 13 | 0.0 | 1.0 | 0.00 | 0.35 | 0.00 | 95 | 1009.1 |
| 20260503053053 | 42 | 13 | 0.0 | 1.0 | 0.00 | 0.35 | 0.00 | 95 | 1009.1 |
| 20260503052553 | 42 | 13 | 0.0 | 0.0 | 0.00 | 0.35 | 0.00 | 95 | 1009.1 |
| 20260503052051 | 43 | 13 | 0.0 | 0.0 | 0.00 | 0.35 | 0.00 | 95 | 1009.1 |
| 20260503051553 | 43 | 13 | 0.0 | 0.0 | 0.00 | 0.35 | 0.00 | 95 | 1009.4 |
| 20260503051050 | 43 | 13 | 0.0 | 0.0 | 0.00 | 0.35 | 0.00 | 95 | 1009.3 |
| 20260503050549 | 43 | 13 | 0.0 | 0.0 | 0.00 | 0.35 | 0.00 | 95 | 1009.5 |
| 20260503050048 | 43 | 13 | 0.0 | 0.0 | 0.00 | 0.35 | 0.00 | 95 | 1009.6 |
| 20260503045550 | 43 | 13 | 0.0 | 0.0 | 0.01 | 0.35 | 0.00 | 95 | 1009.5 |
| 20260503045050 | 43 | 13 | 0.0 | 1.0 | 0.01 | 0.35 | 0.00 | 95 | 1009.6 |
| 20260503044546 | 43 | 13 | 0.0 | 4.0 | 0.01 | 0.35 | 0.00 | 95 | 1009.7 |
| 20260503044046 | 43 | 19 | 1.0 | 4.0 | 0.01 | 0.35 | 0.00 | 95 | 1009.6 |
| 20260503043545 | 43 | 201 | 0.0 | 2.0 | 0.01 | 0.35 | 0.00 | 95 | 1009.6 |
| 20260503043047 | 43 | 201 | 0.0 | 2.0 | 0.01 | 0.35 | 0.00 | 95 | 1009.7 |
| 20260503042543 | 44 | 283 | 0.0 | 0.0 | 0.01 | 0.35 | 0.00 | 95 | 1010.0 |
| 20260503042043 | 44 | 283 | 0.0 | 1.0 | 0.01 | 0.35 | 0.00 | 95 | 1010.0 |
| 20260503041544 | 44 | 296 | 0.0 | 1.0 | 0.01 | 0.35 | 0.00 | 95 | 1010.0 |
| 20260503041042 | 44 | 236 | 0.0 | 6.0 | 0.01 | 0.35 | 0.00 | 96 | 1010.0 |
| 20260503040541 | 44 | 336 | 2.0 | 7.0 | 0.01 | 0.35 | 0.00 | 95 | 1010.0 |
| 20260503040047 | 44 | 99 | 1.0 | 5.0 | 0.00 | 0.34 | 0.34 | 95 | 1010.0 |
| 20260503035539 | 44 | 331 | 0.0 | 4.0 | 0.00 | 0.34 | 0.34 | 96 | 1010.1 |
| 20260503035037 | 45 | 331 | 1.0 | 4.0 | 0.00 | 0.34 | 0.34 | 96 | 1010.0 |
| 20260503034549 | 45 | 323 | 0.0 | 2.0 | 0.00 | 0.34 | 0.34 | 96 | 1010.0 |
| 20260503034037 | 45 | 309 | 0.0 | 4.0 | 0.00 | 0.34 | 0.34 | 96 | 1010.1 |
| 20260503033536 | 45 | 344 | 1.0 | 4.0 | 0.00 | 0.34 | 0.34 | 96 | 1010.1 |
| 20260503033042 | 45 | 244 | 0.0 | 2.0 | 0.00 | 0.34 | 0.34 | 96 | 1010.1 |
| 20260503032535 | 45 | 244 | 0.0 | 2.0 | 0.00 | 0.34 | 0.34 | 96 | 1010.0 |
| 20260503032035 | 45 | 254 | 0.0 | 2.0 | 0.00 | 0.34 | 0.34 | 96 | 1009.9 |
| 20260503031540 | 45 | 254 | 0.0 | 2.0 | 0.00 | 0.34 | 0.34 | 96 | 1009.7 |
| 20260503031134 | 45 | 325 | 0.0 | 1.0 | 0.00 | 0.34 | 0.34 | 96 | 1009.7 |
| 20260503030534 | 46 | 325 | 0.0 | 1.0 | 0.00 | 0.34 | 0.34 | 96 | 1009.9 |
| 20260503030046 | 46 | 325 | 0.0 | 1.0 | 0.00 | 0.34 | 0.34 | 96 | 1009.9 |
| 20260503025534 | 46 | 325 | 0.0 | 1.0 | 0.00 | 0.34 | 0.34 | 96 | 1009.9 |
| 20260503025033 | 46 | 325 | 0.0 | 2.0 | 0.00 | 0.34 | 0.34 | 96 | 1009.9 |
| 20260503024533 | 46 | 325 | 0.0 | 2.0 | 0.00 | 0.34 | 0.34 | 96 | 1010.0 |
| 20260503024033 | 46 | 325 | 0.0 | 2.0 | 0.00 | 0.34 | 0.34 | 96 | 1010.1 |
| 20260503023532 | 46 | 325 | 0.0 | 2.0 | 0.00 | 0.34 | 0.34 | 96 | 1010.1 |
| 20260503023034 | 46 | 275 | 0.0 | 1.0 | 0.00 | 0.34 | 0.34 | 96 | 1010.2 |
| 20260503022532 | 46 | 275 | 0.0 | 2.0 | 0.00 | 0.34 | 0.34 | 95 | 1010.2 |
| 20260503022032 | 46 | 273 | 0.0 | 2.0 | 0.00 | 0.34 | 0.34 | 95 | 1010.2 |
| 20260503021540 | 46 | 272 | 0.0 | 2.0 | 0.00 | 0.34 | 0.34 | 95 | 1010.2 |
| 20260503021032 | 46 | 272 | 1.0 | 2.0 | 0.00 | 0.34 | 0.34 | 95 | 1010.2 |
| 20260503020532 | 46 | 264 | 0.0 | 1.0 | 0.00 | 0.34 | 0.34 | 96 | 1010.1 |
| 20260503020032 | 46 | 264 | 0.0 | 1.0 | 0.00 | 0.34 | 0.34 | 96 | 1010.2 |
| 20260503015533 | 46 | 264 | 0.0 | 1.0 | 0.00 | 0.34 | 0.34 | 95 | 1010.2 |
| 20260503015031 | 46 | 264 | 0.0 | 1.0 | 0.00 | 0.34 | 0.34 | 95 | 1010.2 |
| 20260503014530 | 46 | 264 | 0.0 | 1.0 | 0.00 | 0.34 | 0.34 | 95 | 1010.2 |
| 20260503014030 | 46 | 264 | 0.0 | 1.0 | 0.00 | 0.34 | 0.34 | 95 | 1010.2 |
| 20260503013530 | 47 | 264 | 0.0 | 1.0 | 0.00 | 0.34 | 0.34 | 95 | 1010.2 |
| 20260503013031 | 47 | 264 | 0.0 | 0.0 | 0.00 | 0.34 | 0.34 | 95 | 1010.2 |
| 20260503012531 | 47 | 264 | 0.0 | 0.0 | 0.00 | 0.34 | 0.34 | 95 | 1010.2 |
| 20260503012030 | 47 | 264 | 0.0 | 2.0 | 0.00 | 0.34 | 0.34 | 95 | 1010.2 |
| 20260503011534 | 47 | 264 | 0.0 | 2.0 | 0.00 | 0.34 | 0.34 | 95 | 1010.1 |
| 20260503011029 | 47 | 239 | 0.0 | 1.0 | 0.00 | 0.34 | 0.34 | 95 | 1010.2 |
| 20260503010529 | 47 | 239 | 0.0 | 2.0 | 0.00 | 0.34 | 0.34 | 95 | 1010.2 |
| 20260503010029 | 47 | 239 | 1.0 | 2.0 | 0.00 | 0.34 | 0.34 | 95 | 1010.2 |
| 20260503005529 | 47 | 242 | 1.0 | 2.0 | 0.00 | 0.34 | 0.34 | 95 | 1010.1 |
| 20260503005029 | 47 | 269 | 0.0 | 2.0 | 0.00 | 0.34 | 0.34 | 95 | 1010.0 |
| 20260503004528 | 47 | 275 | 0.0 | 2.0 | 0.00 | 0.34 | 0.34 | 95 | 1010.0 |
| 20260503004032 | 47 | 275 | 0.0 | 4.0 | 0.00 | 0.34 | 0.34 | 95 | 1009.9 |
| 20260503003528 | 47 | 271 | 1.0 | 3.0 | 0.00 | 0.34 | 0.34 | 95 | 1009.8 |
| 20260503003028 | 48 | 221 | 1.0 | 3.0 | 0.00 | 0.34 | 0.34 | 95 | 1009.7 |
| 20260503002527 | 48 | 190 | 0.0 | 4.0 | 0.00 | 0.34 | 0.34 | 95 | 1009.6 |
| 20260503002032 | 48 | 176 | 1.0 | 3.0 | 0.00 | 0.34 | 0.34 | 95 | 1009.5 |
| 20260503001528 | 48 | 106 | 0.0 | 4.0 | 0.00 | 0.34 | 0.34 | 95 | 1009.7 |
| 20260503001028 | 48 | 112 | 1.0 | 4.0 | 0.00 | 0.34 | 0.34 | 95 | 1009.8 |
| 20260503000527 | 48 | 98 | 1.0 | 4.0 | 0.00 | 0.34 | 0.34 | 95 | 1009.9 |
| 20260503000033 | 48 | 103 | 1.0 | 2.0 | 0.01 | 0.34 | 0.34 | 95 | 1010.0 |
| 20260502235527 | 48 | 219 | 0.0 | 2.0 | 0.01 | 0.34 | 0.34 | 95 | 1010.1 |
| 20260502235026 | 48 | 219 | 0.0 | 2.0 | 0.01 | 0.34 | 0.34 | 95 | 1010.0 |
| 20260502234526 | 48 | 216 | 0.0 | 2.0 | 0.01 | 0.34 | 0.34 | 95 | 1009.9 |
| 20260502234026 | 48 | 209 | 1.0 | 2.0 | 0.01 | 0.34 | 0.34 | 95 | 1009.8 |
| 20260502233530 | 48 | 63 | 0.0 | 2.0 | 0.01 | 0.34 | 0.34 | 95 | 1009.7 |
| 20260502233026 | 48 | 86 | 0.0 | 1.0 | 0.01 | 0.34 | 0.34 | 94 | 1009.9 |
| 20260502232526 | 48 | 86 | 0.0 | 2.0 | 0.01 | 0.34 | 0.34 | 95 | 1009.8 |
| 20260502232026 | 48 | 78 | 0.0 | 2.0 | 0.01 | 0.34 | 0.34 | 95 | 1009.8 |
| 20260502231526 | 48 | 28 | 0.0 | 4.0 | 0.01 | 0.34 | 0.34 | 95 | 1009.8 |
| 20260502231029 | 48 | 327 | 0.0 | 2.0 | 0.01 | 0.34 | 0.34 | 95 | 1009.8 |
| 20260502230525 | 48 | 311 | 0.0 | 4.0 | 0.01 | 0.34 | 0.34 | 94 | 1009.8 |
| 20260502230024 | 49 | 298 | 1.0 | 4.0 | 0.00 | 0.33 | 0.33 | 95 | 1009.8 |
| 20260502225524 | 49 | 306 | 0.0 | 0.0 | 0.00 | 0.33 | 0.33 | 95 | 1009.6 |
| 20260502225024 | 49 | 297 | 0.0 | 0.0 | 0.00 | 0.33 | 0.33 | 95 | 1009.6 |
| 20260502224524 | 49 | 297 | 0.0 | 0.0 | 0.00 | 0.33 | 0.33 | 95 | 1009.5 |
| 20260502224026 | 49 | 297 | 0.0 | 0.0 | 0.00 | 0.33 | 0.33 | 95 | 1009.4 |
| 20260502223525 | 49 | 297 | 0.0 | 0.0 | 0.00 | 0.33 | 0.33 | 95 | 1009.4 |
| 20260502223024 | 49 | 297 | 0.0 | 0.0 | 0.00 | 0.33 | 0.33 | 95 | 1009.2 |
| 20260502222524 | 49 | 297 | 0.0 | 0.0 | 0.00 | 0.33 | 0.33 | 95 | 1009.1 |